Regional Weather Roundup
Issued by NWS

Home | Current Version | Previous Version | Text Only | Print | Product List | Glossary Off
Versions: 1 2 3 4 5 6 7 8 9 10 11 12 13 14 15 16 17 18 19 20 21 22 23 24 25 26 27 28 29 30 31 32 33 34 35 36 37 38 39 40 41 42 43 44 45 46 47 48 49 50

000
ASUS43 KLOT 241303
RWRIL

ILLINOIS REGIONAL WEATHER ROUNDUP
NATIONAL WEATHER SERVICE CHICAGO/ROMEOVILLE IL
800 AM CDT SUN JUL 24 2016

NOTE: "FAIR" INDICATES FEW OR NO CLOUDS BELOW 12,000 FEET WITH NO
SIGNIFICANT WEATHER AND/OR OBSTRUCTIONS TO VISIBILITY.

* THESE STATIONS ARE NOT UNDER NWS QUALITY CONTROL. THEY ALSO MAY NOT
  REPORT WEATHER SUCH AS PRECIPITATION OR FOG.

ILZ001-002-007-009-015-016-024-241400-
NORTHWEST ILLINOIS

CITY           SKY/WX    TMP DP  RH WIND       PRES   REMARKS
MOLINE         SUNNY     83  76  79 S7        29.85S HX  91
STERLING*      SUNNY     81  77  88 VRB5      29.88S HX  88
SAVANNA*       SUNNY     80  77  92 S5        29.85S HX  85
$$

ILZ003-004-008-010-011-017-018-241400-
NORTH CENTRAL ILLINOIS

CITY           SKY/WX    TMP DP  RH WIND       PRES   REMARKS
ROCKFORD       MOSUNNY   78  71  79 MISG      29.89S HX  80
FREEPORT*      SUNNY     78  75  90 S13       29.87F HX  81
ROCHELLE*      SUNNY     77  75  95 S9        29.90S FOG
DE KALB*       MOSUNNY   76  74  95 S12       29.92R FOG
$$

ILZ005-006-012>014-019>023-241400-
NORTHEAST ILLINOIS

CITY           SKY/WX    TMP DP  RH WIND       PRES   REMARKS
CHICAGO-OHARE  PTSUNNY   75  71  87 S15       29.92R
CHICAGO-MIDWAY CLOUDY    76  70  82 S10       29.93R
AURORA         SUNNY     77  73  87 S10       29.92R FOG
LANSING*       MOSUNNY   73  69  86 S10       29.95S
WAUKEGAN       CLOUDY    75  72  90 S13       29.90R
DUPAGE AIRPORT CLOUDY    75  71  87 S12       29.91S
WHEELING       CLOUDY    75  71  87 S10       29.92R
MORRIS*        CLOUDY    75  73  94 S5        29.92R
NORTHERLY ISL    N/A     75  69  81 S6          N/A
$$

LMZ740>746-241400-
SOUTHERN LAKE MICHIGAN

STATION/POSITION SKY/WX   TEMP    WIND        PRES    VSBY  WAVE
                          AIR SEA DIR/SP/G                  HT/PER
                          (F)     (DEG/KT/KT) (MB)    (MI)  (FT/S)
SOUTHERN BUOY              74 72  170/ 17/ 19 1011.0          2/ 4
WILMETTE HARBOR            69 65  190/  6/  8   N/A           1/ 2
HARRISON CRIB              73     180/ 15/ 16   N/A
BURNHAM HARBOR             75     160/  8/ 12   N/A
CALUMET HARBOR             72     170/  9/ 13 1012.8R
BURNS HARBOR               73     170/  8/ 16 1014.2R
MICHIGAN CITY              73     140/ 10/ 12   N/A
MICHIGAN CITY 6N           73 73  180/ 12/ 16   N/A           1/ 2
ST. JOSEPH                 74 74  160/ 10/ 12 1013.2R         1/ 2
$$

ILZ025>027-034>036-040-047-049-050-058-095>099-241400-
WEST-CENTRAL ILLINOIS

CITY           SKY/WX    TMP DP  RH WIND       PRES   REMARKS
QUINCY         SUNNY     82  76  81 S8        29.91R HX  89
GALESBURG*     SUNNY     80  76  86 S10       29.90S HX  85
MACOMB*        MOSUNNY   81  76  86 SW8       29.93R HX  87
JACKSONVILLE*  CLOUDY    80  76  87 S7        29.93R HX  85
PITTSFIELD*    CLOUDY    80  76  90 S5        29.94R HX  85
$$

ILZ028>032-037-038-041>044-048-051>054-059>061-241400-
CENTRAL ILLINOIS

CITY           SKY/WX    TMP DP  RH WIND       PRES   REMARKS
PONTIAC        MOSUNNY   80  78  94 S9        29.95R FOG     HX  86
BLOOMINGTON    MOSUNNY   79  76  90 S10       29.97R HX  83
DECATUR        CLOUDY    81  75  82 S9        29.96R HX  87
PEORIA         SUNNY     80  77  90 S7        29.92R HX  87
LACON*         SUNNY     81  75  82 S8        29.90S HX  86
LINCOLN*       MOSUNNY   80  78  92 S6        29.94R FOG     HX  88
SPRINGFIELD    PTSUNNY   81  75  82 S8        29.94R HX  87
TAYLORVILLE    MOSUNNY   80  76  90 NW8       29.96R HX  85
$$

ILZ033-039-045-046-055>057-062-063-241400-
EAST-CENTRAL ILLINOIS

CITY           SKY/WX    TMP DP  RH WIND       PRES   REMARKS
CHAMPAIGN      CLOUDY    79  76  90 S8        29.98R FOG     HX  83
MATTOON        SUNNY     79  75  87 S7        29.97R FOG     HX  83
PARIS*         SUNNY     79  78  97 CALM      29.99S FOG     HX  83
$$

ILZ079-100>102-241400-
SOUTHWEST ILLINOIS

CITY           SKY/WX    TMP DP  RH WIND       PRES   REMARKS
ALTON          MOSUNNY   79  75  89 S7        29.96R HX  82
BELLEVILLE     SUNNY     79  79 100 S3        29.95R HX  84
CAHOKIA*       SUNNY     82  76  81 S3        29.95R HX  89
SPARTA*        SUNNY     80  76  88 S3        29.98S HX  86
$$

ILZ064>066-069>071-074>076-080>082-084>086-088>090-092>094-241400-
SOUTH-CENTRAL ILLINOIS

CITY           SKY/WX    TMP DP  RH WIND       PRES   REMARKS
CARBONDALE     SUNNY     80  76  87 CALM      29.98R HX  86
CAIRO*         SUNNY    N/A N/A N/A S5        29.98R
EFFINGHAM*     SUNNY     80  79  99 SE5       29.99S FOG     HX  85
MARION         MOSUNNY   81  79  94 S6        29.99R HX  89
MT. VERNON     SUNNY     79  73  83 CALM      29.99R HX  82
CENTRALIA*     CLOUDY    82  79  90 S3        29.97S HX  93
SALEM*         SUNNY     82  77  85 SE6       29.97S FOG     HX  89
METROPOLIS*    SUNNY     81  76  86 CALM      29.99R HX  87
$$

ILZ067-068-072-073-078-083-087-091-241400-
SOUTHEAST ILLINOIS

CITY           SKY/WX    TMP DP  RH WIND       PRES   REMARKS
LAWRENCEVILLE  SUNNY     80  77  90 S6        29.98S FOG     HX  87
FLORA*         SUNNY     80  78  94 S3        29.98S FOG     HX  85
FAIRFIELD*     SUNNY     79  77  93 S3        29.97S FOG     HX  84
HARRISBURG*    SUNNY     79  77  94 SW3       29.99R HX  83
ROBINSON*      SUNNY     80  77  91 CALM      29.98S FOG     HX  85
CARMI*         SUNNY     79  77  93 SE3       29.98S HX  83
$$

ABBREVIATIONS USED IN REMARKS
   TC - TEMPERATURE IN CELSIUS
  WCI - WIND CHILL INDEX
   HX - HEAT INDEX
  VSB - VISIBILITY
$$




USA.gov is the U.S. government's official web portal to all federal, state and local government web resources and services.